This demonstration page uses our WeatherBlox Daily Observations layout. Learn more.

Left ArrowRight Arrow

41.12389, -100.76542

Hourly Observations for November 30, 2015

Temp ( °F °C ) Dew Point ( °F °C ) Humidity (%) Winds ( mph kmh ) Pressure ( in mb ) Visibility ( mi km ) Precip ( " mm )
12:49 am 00:49 Cloudy 27 -3 21 -6 80 80 ENE 3 6 30.21 1023 10 16 0.00 0.00
12:53 am 00:53 Cloudy 27 -2.8 21 -6.1 78 78 ENE 5 7 30.13 1020 10 16 0.00 0.00
1:53 am 01:53 Cloudy 27 -2.8 21 -6.1 78 78 Calm 30.11 1020 10 16 0.00 0.00
2:53 am 02:53 Cloudy 27 -2.8 21 -6.1 78 78 NNE 3 6 30.09 1019 10 16 0.00 0.00
3:53 am 03:53 Cloudy 27 -2.8 21 -6.1 78 78 N 3 6 30.06 1018 10 16 0.00 0.00
4:53 am 04:53 Cloudy with Light Snow 27 -2.8 22 -5.6 81 81 Calm 30.07 1018 7 11 0.00 0.03
5:12 am 05:12 Cloudy with Light Snow 27 -3 21 -6 80 80 Calm 30.15 1021 6 10 0.00 0.00
5:41 am 05:41 Cloudy with Light Snow 26 -3.3 22 -5.6 84 84 NW 3 6 30.15 1021 3 4 0.02 0.51
5:53 am 05:53 Cloudy with Light Snow 26 -3.3 23 -5 88 88 Calm 30.06 1018 3 5 0.02 0.51
6:28 am 06:28 Cloudy with Light Snow 25 -4 23 -5 93 93 NW 3 6 30.12 1020 3 4 0.00 0.00
6:41 am 06:41 Cloudy with Light Snow 25 -3.9 23 -5 92 92 NW 5 7 30.12 1020 3 5 0.02 0.51
6:53 am 06:53 Cloudy with Light Snow 25 -3.9 22 -5.6 88 88 NW 6 9 30.06 1018 4 6 0.02 0.51
7:12 am 07:12 Cloudy with Light Snow 25 -3.9 22 -5.6 88 88 NW 5 7 30.12 1020 5 8 0.00 0.03
7:45 am 07:45 Cloudy with Light Snow 25 -3.9 22 -5.6 88 88 N 5 7 30.12 1020 4 6 0.01 0.25
7:53 am 07:53 Cloudy with Light Snow 25 -3.9 22 -5.6 88 88 N 3 6 30.05 1018 4 6 0.01 0.25
8:07 am 08:07 Cloudy with Light Snow 25 -3.9 22 -5.6 88 88 N 3 6 30.12 1020 2 3 0.01 0.25
8:17 am 08:17 Cloudy with Light Snow 25 -3.9 22 -5.6 88 88 NNW 3 6 30.12 1020 2 3 0.01 0.25
8:34 am 08:34 Cloudy with Light Snow 27 -3 21 -6 80 80 N 3 6 30.12 1020 3 4 0.00 0.00
8:53 am 08:53 Cloudy with Light Snow 26 -3.3 23 -5 88 88 N 3 6 30.04 1017 2 2 0.02 0.51
9:18 am 09:18 Cloudy with Light Snow 27 -3 23 -5 86 86 N 3 6 30.12 1020 2 3 0.00 0.00
9:30 am 09:30 Cloudy with Light Snow 27 -3 23 -5 86 86 NNW 3 6 30.12 1020 2 3 0.00 0.00
9:37 am 09:37 Cloudy with Light Snow 27 -2.8 23 -5 85 85 Calm 30.12 1020 2 3 0.02 0.51
9:53 am 09:53 Cloudy with Light Snow 27 -2.8 24 -4.4 89 89 W 3 6 30.04 1017 3 4 0.02 0.51
10:01 am 10:01 Cloudy with Light Snow 27 -3 23 -5 86 86 WNW 3 6 30.12 1020 4 6 0.00 0.00
10:17 am 10:17 Cloudy with Light Snow 28 -2.2 24 -4.4 85 85 WNW 3 6 30.09 1019 5 8 0.01 0.25
10:27 am 10:27 Cloudy with Light Snow 29 -1.7 24 -4.4 82 82 NW 5 7 30.09 1019 7 11 0.01 0.25
10:53 am 10:53 Cloudy with Light Snow 29 -1.7 24 -4.4 82 82 WNW 7 11 30.03 1017 4 6 0.01 0.25
11:04 am 11:04 Cloudy with Light Snow 28 -2 25 -4 86 86 NW 7 11 30.06 1018 3 4 0.00 0.00
11:17 am 11:17 Cloudy with Light Snow 29 -1.7 25 -3.9 85 85 WNW 6 9 30.06 1018 3 5 0.00 0.03
11:53 am 11:53 Cloudy with Light Snow 30 -1.1 26 -3.3 85 85 WNW 9 15 30.00 1016 3 5 0.01 0.25
12:04 pm 12:04 Cloudy with Light Snow 30 -1 27 -3 86 86 NW 10 17 30.03 1017 2 3 0.00 0.00
12:23 pm 12:23 Cloudy with Light Snow 30 -1.1 26 -3.3 85 85 NW 14 22 30.03 1017 2 2 0.01 0.25
12:30 pm 12:30 Cloudy with Light Snow 30 -1 27 -3 86 86 NNW 10 17 30.03 1017 1 2 0.00 0.00
12:37 pm 12:37 Cloudy with Light Snow 30 -1.1 26 -3.3 85 85 NW 9 15 30.03 1017 2 2 0.02 0.51
12:53 pm 12:53 Cloudy with Light Snow 30 -1.1 26 -3.3 85 85 NW 16 26 29.96 1015 2 3 0.03 0.76
1:53 pm 13:53 Cloudy with Light Snow 29 -1.7 25 -3.9 85 85 WNW 16 26 29.94 1014 3 4 0.01 0.25
2:00 pm 14:00 Cloudy with Light Snow 28 -2 25 -4 86 86 NW 14 22 30.00 1016 3 5 0.00 0.00
2:12 pm 14:12 Cloudy with Light Snow 28 -2 25 -4 86 86 WNW 14 22 29.97 1015 4 6 0.00 0.00
2:53 pm 14:53 Cloudy with Light Snow 30 -1.1 25 -3.9 82 82 NNW 12 19 29.92 1013 9 14 0.01 0.25
3:53 pm 15:53 Cloudy with Light Snow 29 -1.7 24 -4.4 82 82 NW 10 17 29.93 1013 5 8 0.00 0.03
4:53 pm 16:53 Cloudy with Light Snow 28 -2.2 24 -4.4 85 85 NW 10 17 29.93 1014 3 4 0.02 0.51
5:03 pm 17:03 Cloudy with Light Snow 28 -2 25 -4 86 86 NNW 9 15 29.97 1015 3 5 0.00 0.00
5:24 pm 17:24 Cloudy with Light Snow 27 -3 23 -5 86 86 NW 14 22 29.97 1015 3 4 0.00 0.00
5:32 pm 17:32 Cloudy with Light Snow 27 -3 23 -5 86 86 NW 13 20 29.97 1015 4 6 0.00 0.00
5:53 pm 17:53 Cloudy with Light Snow 26 -3.3 23 -5 88 88 NW 14 22 29.95 1014 6 10 0.01 0.25
6:00 pm 18:00 Cloudy with Light Snow 26 -3.3 22 -5.6 84 84 NW 13 20 29.97 1015 9 14 0.00 0.03
6:53 pm 18:53 Cloudy with Light Snow 25 -3.9 21 -6.1 85 85 NW 13 20 29.95 1014 10 16 0.00 0.03
7:53 pm 19:53 Cloudy 25 -3.9 21 -6.1 85 85 WNW 15 24 29.95 1014 10 16 0.00 0.03
8:53 pm 20:53 Cloudy 26 -3.3 21 -6.1 81 81 W 14 22 29.93 1013 10 16 0.00 0.03
9:53 pm 21:53 Cloudy 27 -2.8 20 -6.7 75 75 WNW 18 30 29.90 1013 10 16 0.00 0.00
10:53 pm 22:53 Cloudy 26 -3.3 20 -6.7 78 78 W 12 19 29.88 1012 10 16 0.00 0.00
11:53 pm 23:53 Cloudy 26 -3.3 21 -6.1 81 81 WNW 8 13 29.88 1012 10 16 0.00 0.00

Powered by AerisWeather